Year,Month,Day,Hour,Minute,Value (Times are PST for temperature in C)
2022,04,17,00,00,3.90
2022,04,17,00,01,3.90
2022,04,17,00,02,3.90
2022,04,17,00,03,3.90
2022,04,17,00,04,3.90
2022,04,17,00,05,4.00
2022,04,17,00,06,4.00
2022,04,17,00,07,4.00
2022,04,17,00,08,4.00
2022,04,17,00,09,4.00
2022,04,17,00,10,4.00
2022,04,17,00,11,4.00
2022,04,17,00,12,4.00
2022,04,17,00,13,4.00
2022,04,17,00,14,4.00
2022,04,17,00,15,4.00
2022,04,17,00,16,4.00
2022,04,17,00,17,4.00
2022,04,17,00,18,4.00
2022,04,17,00,19,4.00
2022,04,17,00,20,4.00
2022,04,17,00,21,4.00
2022,04,17,00,22,4.00
2022,04,17,00,23,4.00
2022,04,17,00,24,4.00
2022,04,17,00,25,4.00
2022,04,17,00,26,4.00
2022,04,17,00,27,4.00
2022,04,17,00,28,4.00
2022,04,17,00,29,4.00
2022,04,17,00,30,4.00
2022,04,17,00,31,4.00
2022,04,17,00,32,4.00
2022,04,17,00,33,4.00
2022,04,17,00,34,4.00
2022,04,17,00,35,4.00
2022,04,17,00,36,4.00
2022,04,17,00,37,4.00
2022,04,17,00,38,4.00
2022,04,17,00,39,4.00
2022,04,17,00,40,4.00
2022,04,17,00,41,4.00
2022,04,17,00,42,4.00
2022,04,17,00,43,4.00
2022,04,17,00,44,4.00
2022,04,17,00,45,4.10
2022,04,17,00,46,4.00
2022,04,17,00,47,4.00
2022,04,17,00,48,4.00
2022,04,17,00,49,4.10
2022,04,17,00,50,4.10
2022,04,17,00,51,4.10
2022,04,17,00,52,4.10
2022,04,17,00,53,4.10
2022,04,17,00,54,4.10
2022,04,17,00,55,4.10
2022,04,17,00,56,4.10
2022,04,17,00,57,4.10
2022,04,17,00,58,4.10
2022,04,17,00,59,4.10
2022,04,17,01,00,4.10
2022,04,17,01,01,4.10
2022,04,17,01,02,4.10
2022,04,17,01,03,4.10
2022,04,17,01,04,4.10
2022,04,17,01,05,4.10
2022,04,17,01,06,4.10
2022,04,17,01,07,4.10
2022,04,17,01,08,4.10
2022,04,17,01,09,4.10
2022,04,17,01,10,4.00
2022,04,17,01,11,4.00
2022,04,17,01,12,4.00
2022,04,17,01,13,4.00
2022,04,17,01,14,4.00
2022,04,17,01,15,4.00
2022,04,17,01,16,4.00
2022,04,17,01,17,4.00
2022,04,17,01,18,4.00
2022,04,17,01,19,3.90
2022,04,17,01,20,3.90
2022,04,17,01,21,3.90
2022,04,17,01,22,3.90
2022,04,17,01,23,3.90
2022,04,17,01,24,3.90
2022,04,17,01,25,3.90
2022,04,17,01,26,3.90
2022,04,17,01,27,3.90
2022,04,17,01,28,3.80
2022,04,17,01,29,3.80
2022,04,17,01,30,3.80
2022,04,17,01,31,3.70
2022,04,17,01,32,3.70
2022,04,17,01,33,3.70
2022,04,17,01,34,3.60
2022,04,17,01,35,3.60
2022,04,17,01,36,3.60
2022,04,17,01,37,3.50
2022,04,17,01,38,3.50
2022,04,17,01,39,3.40
2022,04,17,01,40,3.40
2022,04,17,01,41,3.40
2022,04,17,01,42,3.30
2022,04,17,01,43,3.30
2022,04,17,01,44,3.30
2022,04,17,01,45,3.30
2022,04,17,01,46,3.30
2022,04,17,01,47,3.30
2022,04,17,01,48,3.30
2022,04,17,01,49,3.30
2022,04,17,01,50,3.30
2022,04,17,01,51,3.30
2022,04,17,01,52,3.40
2022,04,17,01,53,3.40
2022,04,17,01,54,3.50
2022,04,17,01,55,3.50
2022,04,17,01,56,3.60
2022,04,17,01,57,3.60
2022,04,17,01,58,3.60
2022,04,17,01,59,3.70
2022,04,17,02,00,3.70
2022,04,17,02,01,3.70
2022,04,17,02,02,3.70
2022,04,17,02,03,3.80
2022,04,17,02,04,3.80
2022,04,17,02,05,3.80
2022,04,17,02,06,3.80
2022,04,17,02,07,3.80
2022,04,17,02,08,3.90
2022,04,17,02,09,3.90
2022,04,17,02,10,3.90
2022,04,17,02,11,3.90
2022,04,17,02,12,3.90
2022,04,17,02,13,3.90
2022,04,17,02,14,3.90
2022,04,17,02,15,3.90
2022,04,17,02,16,3.90
2022,04,17,02,17,3.90
2022,04,17,02,18,3.90
2022,04,17,02,19,3.90
2022,04,17,02,20,4.00
2022,04,17,02,21,4.00
2022,04,17,02,22,4.00
2022,04,17,02,23,4.10
2022,04,17,02,24,4.10
2022,04,17,02,25,4.10
2022,04,17,02,26,4.10
2022,04,17,02,27,4.10
2022,04,17,02,28,4.10
2022,04,17,02,29,4.10
2022,04,17,02,30,4.20
2022,04,17,02,31,4.20
2022,04,17,02,32,4.20
2022,04,17,02,33,4.20
2022,04,17,02,34,4.20
2022,04,17,02,35,4.20
2022,04,17,02,36,4.20
2022,04,17,02,37,4.20
2022,04,17,02,38,4.30
2022,04,17,02,39,4.30
2022,04,17,02,40,4.30
2022,04,17,02,41,4.40
2022,04,17,02,42,4.40
2022,04,17,02,43,4.40
2022,04,17,02,44,4.50
2022,04,17,02,45,4.50
2022,04,17,02,46,4.50
2022,04,17,02,47,4.50
2022,04,17,02,48,4.60
2022,04,17,02,49,4.60
2022,04,17,02,50,4.60
2022,04,17,02,51,4.60
2022,04,17,02,52,4.60
2022,04,17,02,53,4.60
2022,04,17,02,54,4.60
2022,04,17,02,55,4.70
2022,04,17,02,56,4.70
2022,04,17,02,57,4.70
2022,04,17,02,58,4.70
2022,04,17,02,59,4.70
2022,04,17,03,00,4.70
2022,04,17,03,01,4.70
2022,04,17,03,02,4.70
2022,04,17,03,03,4.70
2022,04,17,03,04,4.70
2022,04,17,03,05,4.60
2022,04,17,03,06,4.60
2022,04,17,03,07,4.60
2022,04,17,03,08,4.60
2022,04,17,03,09,4.60
2022,04,17,03,10,4.50
2022,04,17,03,11,4.50
2022,04,17,03,12,4.50
2022,04,17,03,13,4.40
2022,04,17,03,14,4.40
2022,04,17,03,15,4.40
2022,04,17,03,16,4.40
2022,04,17,03,17,4.30
2022,04,17,03,18,4.30
2022,04,17,03,19,4.30
2022,04,17,03,20,4.30
2022,04,17,03,21,4.30
2022,04,17,03,22,4.20
2022,04,17,03,23,4.20
2022,04,17,03,24,4.20
2022,04,17,03,25,4.20
2022,04,17,03,26,4.20
2022,04,17,03,27,4.20
2022,04,17,03,28,4.20
2022,04,17,03,29,4.10
2022,04,17,03,30,4.10
2022,04,17,03,31,4.10
2022,04,17,03,32,4.10
2022,04,17,03,33,4.10
2022,04,17,03,34,4.00
2022,04,17,03,35,4.00
2022,04,17,03,36,4.00
2022,04,17,03,37,3.90
2022,04,17,03,38,3.90
2022,04,17,03,39,3.90
2022,04,17,03,40,3.90
2022,04,17,03,41,3.90
2022,04,17,03,42,3.90
2022,04,17,03,43,3.80
2022,04,17,03,44,3.80
2022,04,17,03,45,3.80
2022,04,17,03,46,3.80
2022,04,17,03,47,3.70
2022,04,17,03,48,3.70
2022,04,17,03,49,3.70
2022,04,17,03,50,3.60
2022,04,17,03,51,3.60
2022,04,17,03,52,3.60
2022,04,17,03,53,3.60
2022,04,17,03,54,3.50
2022,04,17,03,55,3.50
2022,04,17,03,56,3.50
2022,04,17,03,57,3.50
2022,04,17,03,58,3.50
2022,04,17,03,59,3.40
2022,04,17,04,00,3.40
2022,04,17,04,01,3.40
2022,04,17,04,02,3.40
2022,04,17,04,03,3.40
2022,04,17,04,04,3.40
2022,04,17,04,08,3.40
2022,04,17,04,09,3.40
2022,04,17,04,10,3.30
2022,04,17,04,11,3.30
2022,04,17,04,12,3.30
2022,04,17,04,13,3.30
2022,04,17,04,14,3.20
2022,04,17,04,15,3.20
2022,04,17,04,16,3.20
2022,04,17,04,17,3.20
2022,04,17,04,18,3.10
2022,04,17,04,19,3.10
2022,04,17,04,20,3.10
2022,04,17,04,21,3.10
2022,04,17,04,22,3.10
2022,04,17,04,23,3.00
2022,04,17,04,24,3.00
2022,04,17,04,25,3.00
2022,04,17,04,26,3.00
2022,04,17,04,27,3.00
2022,04,17,04,28,2.90
2022,04,17,04,29,2.90
2022,04,17,04,30,2.90
2022,04,17,04,31,2.90
2022,04,17,04,32,2.80
2022,04,17,04,33,2.80
2022,04,17,04,34,2.80
2022,04,17,04,35,2.70
2022,04,17,04,36,2.70
2022,04,17,04,37,2.70
2022,04,17,04,38,2.60
2022,04,17,04,39,2.60
2022,04,17,04,40,2.60
2022,04,17,04,41,2.60
2022,04,17,04,42,2.60
2022,04,17,04,43,2.60
2022,04,17,04,44,2.60
2022,04,17,04,45,2.60
2022,04,17,04,46,2.60
2022,04,17,04,47,2.60
2022,04,17,04,48,2.60
2022,04,17,04,49,2.60
2022,04,17,04,50,2.60
2022,04,17,04,51,2.60
2022,04,17,04,52,2.60
2022,04,17,04,53,2.60
2022,04,17,04,54,2.60
2022,04,17,04,55,2.60
2022,04,17,04,56,2.60
2022,04,17,04,57,2.60
2022,04,17,04,58,2.50
2022,04,17,04,59,2.50
2022,04,17,05,00,2.50
2022,04,17,05,01,2.50
2022,04,17,05,02,2.50
2022,04,17,05,03,2.50
2022,04,17,05,04,2.50
2022,04,17,05,05,2.50
2022,04,17,05,06,2.50
2022,04,17,05,07,2.50
2022,04,17,05,08,2.50
2022,04,17,05,09,2.50
2022,04,17,05,10,2.40
2022,04,17,05,11,2.40
2022,04,17,05,12,2.40
2022,04,17,05,13,2.30
2022,04,17,05,14,2.30
2022,04,17,05,15,2.30
2022,04,17,05,16,2.20
2022,04,17,05,17,2.20
2022,04,17,05,18,2.20
2022,04,17,05,19,2.20
2022,04,17,05,20,2.20
2022,04,17,05,21,2.20
2022,04,17,05,22,2.20
2022,04,17,05,23,2.20
2022,04,17,05,24,2.20
2022,04,17,05,25,2.20
2022,04,17,05,26,2.20
2022,04,17,05,27,2.20
2022,04,17,05,28,2.20
2022,04,17,05,29,2.20
2022,04,17,05,30,2.20
2022,04,17,05,31,2.20
2022,04,17,05,32,2.20
2022,04,17,05,33,2.20
2022,04,17,05,34,2.20
2022,04,17,05,35,2.20
2022,04,17,05,36,2.20
2022,04,17,05,37,2.20
2022,04,17,05,38,2.20
2022,04,17,05,39,2.20
2022,04,17,05,40,2.20
2022,04,17,05,41,2.20
2022,04,17,05,42,2.20
2022,04,17,05,43,2.20
2022,04,17,05,44,2.20
2022,04,17,05,45,2.20
2022,04,17,05,46,2.10
2022,04,17,05,47,2.10
2022,04,17,05,48,2.10
2022,04,17,05,49,2.10
2022,04,17,05,50,2.10
2022,04,17,05,51,2.10
2022,04,17,05,52,2.10
2022,04,17,05,53,2.10
2022,04,17,05,54,2.10
2022,04,17,05,55,2.00
2022,04,17,05,56,2.00
2022,04,17,05,57,2.00
2022,04,17,05,58,2.00
2022,04,17,05,59,2.00
2022,04,17,06,00,2.00
2022,04,17,06,01,2.00
2022,04,17,06,02,2.00
2022,04,17,06,03,1.90
2022,04,17,06,04,1.90
2022,04,17,06,05,1.90
2022,04,17,06,06,1.90
2022,04,17,06,07,1.90
2022,04,17,06,08,1.90
2022,04,17,06,09,1.90
2022,04,17,06,10,1.90
2022,04,17,06,11,1.90
2022,04,17,06,12,1.90
2022,04,17,06,13,1.90
2022,04,17,06,14,1.90
2022,04,17,06,15,1.90
2022,04,17,06,16,1.90
2022,04,17,06,17,1.90
2022,04,17,06,18,1.90
2022,04,17,06,19,1.90
2022,04,17,06,20,1.90
2022,04,17,06,21,1.90
2022,04,17,06,22,1.90
2022,04,17,06,23,1.90
2022,04,17,06,24,1.90
2022,04,17,06,25,1.90
2022,04,17,06,26,1.90
2022,04,17,06,27,1.90
2022,04,17,06,28,1.90
2022,04,17,06,29,1.90
2022,04,17,06,30,1.90
2022,04,17,06,31,1.90
2022,04,17,06,32,1.90
2022,04,17,06,33,1.90
2022,04,17,06,34,1.90
2022,04,17,06,35,1.90
2022,04,17,06,36,2.00
2022,04,17,06,37,2.00
2022,04,17,06,38,2.00
2022,04,17,06,39,2.00
2022,04,17,06,40,2.00
2022,04,17,06,41,2.00
2022,04,17,06,42,1.90
2022,04,17,06,43,1.90
2022,04,17,06,44,1.90
2022,04,17,06,45,1.90
2022,04,17,06,46,1.90
2022,04,17,06,47,1.90
2022,04,17,06,48,1.90
2022,04,17,06,49,1.90
2022,04,17,06,50,1.90
2022,04,17,06,51,1.90
2022,04,17,06,52,1.90
2022,04,17,06,53,1.90
2022,04,17,06,54,1.90
2022,04,17,06,55,1.90
2022,04,17,06,56,1.90
2022,04,17,06,57,1.90
2022,04,17,06,58,1.90
2022,04,17,06,59,2.00
2022,04,17,07,00,2.00
2022,04,17,07,01,2.00
2022,04,17,07,02,2.10
2022,04,17,07,03,2.10
2022,04,17,07,04,2.10
2022,04,17,07,05,2.10
2022,04,17,07,06,2.10
2022,04,17,07,07,2.20
2022,04,17,07,08,2.20
2022,04,17,07,09,2.20
2022,04,17,07,10,2.20
2022,04,17,07,11,2.20
2022,04,17,07,12,2.20
2022,04,17,07,13,2.20
2022,04,17,07,14,2.20
2022,04,17,07,15,2.20
2022,04,17,07,16,2.20
2022,04,17,07,17,2.20
2022,04,17,07,18,2.20
2022,04,17,07,19,2.20
2022,04,17,07,20,2.20
2022,04,17,07,21,2.20
2022,04,17,07,22,2.30
2022,04,17,07,23,2.30
2022,04,17,07,24,2.30
2022,04,17,07,25,2.30
2022,04,17,07,26,2.40
2022,04,17,07,27,2.40
2022,04,17,07,28,2.50
2022,04,17,07,29,2.60
2022,04,17,07,30,2.60
2022,04,17,07,31,2.60
2022,04,17,07,32,2.70
2022,04,17,07,33,2.70
2022,04,17,07,34,2.70
2022,04,17,07,35,2.70
2022,04,17,07,36,2.80
2022,04,17,07,37,2.80
2022,04,17,07,38,2.90
2022,04,17,07,39,2.90
2022,04,17,07,40,3.00
2022,04,17,07,41,3.10
2022,04,17,07,42,3.10
2022,04,17,07,43,3.20
2022,04,17,07,44,3.20
2022,04,17,07,45,3.30
2022,04,17,07,46,3.40
2022,04,17,07,47,3.40
2022,04,17,07,48,3.50
2022,04,17,07,49,3.60
2022,04,17,07,50,3.60
2022,04,17,07,51,3.70
2022,04,17,07,52,3.80
2022,04,17,07,53,3.80
2022,04,17,07,54,3.90
2022,04,17,07,55,4.00
2022,04,17,07,56,4.10
2022,04,17,07,57,4.10
2022,04,17,07,58,4.20
2022,04,17,07,59,4.30
2022,04,17,08,00,4.40
2022,04,17,08,01,4.50
2022,04,17,08,02,4.60
2022,04,17,08,03,4.70
2022,04,17,08,04,4.80
2022,04,17,08,05,4.90
2022,04,17,08,06,5.00
2022,04,17,08,07,5.00
2022,04,17,08,08,5.10
2022,04,17,08,09,5.20
2022,04,17,08,10,5.20
2022,04,17,08,11,5.20
2022,04,17,08,12,5.20
2022,04,17,08,13,5.20
2022,04,17,08,14,5.20
2022,04,17,08,15,5.20
2022,04,17,08,16,5.20
2022,04,17,08,17,5.10
2022,04,17,08,18,5.10
2022,04,17,08,19,5.10
2022,04,17,08,20,5.10
2022,04,17,08,21,5.20
2022,04,17,08,22,5.20
2022,04,17,08,23,5.20
2022,04,17,08,24,5.20
2022,04,17,08,25,5.20
2022,04,17,08,26,5.30
2022,04,17,08,27,5.30
2022,04,17,08,28,5.30
2022,04,17,08,29,5.30
2022,04,17,08,30,5.40
2022,04,17,08,31,5.40
2022,04,17,08,32,5.40
2022,04,17,08,33,5.40
2022,04,17,08,34,5.50
2022,04,17,08,35,5.50
2022,04,17,08,36,5.50
2022,04,17,08,37,5.60
2022,04,17,08,38,5.60
2022,04,17,08,39,5.70
2022,04,17,08,40,5.80
2022,04,17,08,41,5.80
2022,04,17,08,42,5.80
2022,04,17,08,43,5.80
2022,04,17,08,44,5.90
2022,04,17,08,45,5.90
2022,04,17,08,46,5.90
2022,04,17,08,47,5.90
2022,04,17,08,48,6.00
2022,04,17,08,49,6.00
2022,04,17,08,50,6.10
2022,04,17,08,51,6.10
2022,04,17,08,52,6.10
2022,04,17,08,53,6.10
2022,04,17,08,54,6.10
2022,04,17,08,55,6.10
2022,04,17,08,56,6.10
2022,04,17,08,57,6.10
2022,04,17,08,58,6.10
2022,04,17,08,59,6.10
2022,04,17,09,00,6.10
2022,04,17,09,01,6.20
2022,04,17,09,02,6.20
2022,04,17,09,03,6.20
2022,04,17,09,04,6.20
2022,04,17,09,05,6.20
2022,04,17,09,06,6.20
2022,04,17,09,07,6.30
2022,04,17,09,08,6.30
2022,04,17,09,09,6.40
2022,04,17,09,10,6.40
2022,04,17,09,11,6.50
2022,04,17,09,12,6.50
2022,04,17,09,13,6.50
2022,04,17,09,14,6.50
2022,04,17,09,15,6.50
2022,04,17,09,16,6.50
2022,04,17,09,17,6.50
2022,04,17,09,18,6.40
2022,04,17,09,19,6.40
2022,04,17,09,20,6.30
2022,04,17,09,21,6.30
2022,04,17,09,22,6.30
2022,04,17,09,23,6.20
2022,04,17,09,24,6.20
2022,04,17,09,25,6.20
2022,04,17,09,26,6.10
2022,04,17,09,27,6.10
2022,04,17,09,28,6.20
2022,04,17,09,29,6.30
2022,04,17,09,30,6.30
2022,04,17,09,31,6.40
2022,04,17,09,32,6.40
2022,04,17,09,33,6.40
2022,04,17,09,34,6.40
2022,04,17,09,35,6.40
2022,04,17,09,36,6.40
2022,04,17,09,37,6.40
2022,04,17,09,38,6.40
2022,04,17,09,39,6.40
2022,04,17,09,40,6.40
2022,04,17,09,41,6.40
2022,04,17,09,42,6.40
2022,04,17,09,43,6.40
2022,04,17,09,44,6.30
2022,04,17,09,45,6.30
2022,04,17,09,46,6.30
2022,04,17,09,47,6.30
2022,04,17,09,48,6.40
2022,04,17,09,49,6.50
2022,04,17,09,50,6.60
2022,04,17,09,51,6.70
2022,04,17,09,52,6.80
2022,04,17,09,53,6.70
2022,04,17,09,54,6.60
2022,04,17,09,55,6.60
2022,04,17,09,56,6.70
2022,04,17,09,57,6.70
2022,04,17,09,58,6.70
2022,04,17,09,59,6.70
2022,04,17,10,00,6.70
2022,04,17,10,01,6.80
2022,04,17,10,02,6.80
2022,04,17,10,03,6.80
2022,04,17,10,04,6.80
2022,04,17,10,05,6.80
2022,04,17,10,06,6.90
2022,04,17,10,07,6.90
2022,04,17,10,08,6.90
2022,04,17,10,09,6.90
2022,04,17,10,10,7.00
2022,04,17,10,11,7.00
2022,04,17,10,12,6.90
2022,04,17,10,13,6.90
2022,04,17,10,14,6.90
2022,04,17,10,15,6.90
2022,04,17,10,16,6.90
2022,04,17,10,17,6.90
2022,04,17,10,18,6.90
2022,04,17,10,19,6.90
2022,04,17,10,20,7.00
2022,04,17,10,21,7.00
2022,04,17,10,22,6.90
2022,04,17,10,23,6.80
2022,04,17,10,24,6.80
2022,04,17,10,25,6.80
2022,04,17,10,26,6.80
2022,04,17,10,27,6.80
2022,04,17,10,28,6.80
2022,04,17,10,29,6.80
2022,04,17,10,30,6.80
2022,04,17,10,31,6.90
2022,04,17,10,32,6.90
2022,04,17,10,33,6.90
2022,04,17,10,34,6.90
2022,04,17,10,35,6.90
2022,04,17,10,36,6.90
2022,04,17,10,37,6.90
2022,04,17,10,38,6.80
2022,04,17,10,39,6.80
2022,04,17,10,40,6.80
2022,04,17,10,41,6.80
2022,04,17,10,42,6.90
2022,04,17,10,43,6.90
2022,04,17,10,44,6.90
2022,04,17,10,45,6.90
2022,04,17,10,46,6.90
2022,04,17,10,47,6.90
2022,04,17,10,48,7.00
2022,04,17,10,49,7.00
2022,04,17,10,50,7.00
2022,04,17,10,51,7.00
2022,04,17,10,52,7.10
2022,04,17,10,53,7.00
2022,04,17,10,54,7.00
2022,04,17,10,55,6.90
2022,04,17,10,56,7.00
2022,04,17,10,57,7.00
2022,04,17,10,58,7.10
2022,04,17,10,59,7.10
2022,04,17,11,00,7.10
2022,04,17,11,01,7.20
2022,04,17,11,02,7.20
2022,04,17,11,03,7.30
2022,04,17,11,04,7.30
2022,04,17,11,05,7.40
2022,04,17,11,06,7.40
2022,04,17,11,07,7.50
2022,04,17,11,08,7.50
2022,04,17,11,09,7.50
2022,04,17,11,10,7.50
2022,04,17,11,11,7.50
2022,04,17,11,12,7.40
2022,04,17,11,13,7.40
2022,04,17,11,14,7.40
2022,04,17,11,15,7.30
2022,04,17,11,16,7.30
2022,04,17,11,17,7.30
2022,04,17,11,18,7.30
2022,04,17,11,19,7.30
2022,04,17,11,20,7.30
2022,04,17,11,21,7.40
2022,04,17,11,22,7.40
2022,04,17,11,23,7.50
2022,04,17,11,24,7.60
2022,04,17,11,25,7.60
2022,04,17,11,26,7.70
2022,04,17,11,27,7.60
2022,04,17,11,28,7.60
2022,04,17,11,29,7.60
2022,04,17,11,30,7.60
2022,04,17,11,31,7.60
2022,04,17,11,32,7.60
2022,04,17,11,33,7.50
2022,04,17,11,34,7.50
2022,04,17,11,35,7.40
2022,04,17,11,36,7.40
2022,04,17,11,37,7.40
2022,04,17,11,38,7.50
2022,04,17,11,39,7.50
2022,04,17,11,40,7.50
2022,04,17,11,41,7.60
2022,04,17,11,42,7.70
2022,04,17,11,43,7.80
2022,04,17,11,44,7.90
2022,04,17,11,45,8.00
2022,04,17,11,46,8.00
2022,04,17,11,47,8.00
2022,04,17,11,48,8.10
2022,04,17,11,49,8.10
2022,04,17,11,50,8.00
2022,04,17,11,51,8.00
2022,04,17,11,52,8.00
2022,04,17,11,53,7.90
2022,04,17,11,54,7.90
2022,04,17,11,55,7.90
2022,04,17,11,56,8.00
2022,04,17,11,57,8.00
2022,04,17,11,58,8.00
2022,04,17,11,59,8.00
2022,04,17,12,00,8.00
2022,04,17,12,01,8.00
2022,04,17,12,02,8.00
2022,04,17,12,03,8.00
2022,04,17,12,04,7.90
2022,04,17,12,05,7.90
2022,04,17,12,06,7.90
2022,04,17,12,07,7.90
2022,04,17,12,08,7.90
2022,04,17,12,09,8.00
2022,04,17,12,10,8.00
2022,04,17,12,11,8.10
2022,04,17,12,12,8.10
2022,04,17,12,13,8.10
2022,04,17,12,14,8.00
2022,04,17,12,15,8.00
2022,04,17,12,16,7.90
2022,04,17,12,17,8.00
2022,04,17,12,18,8.10
2022,04,17,12,19,8.10
2022,04,17,12,20,8.10
2022,04,17,12,21,8.10
2022,04,17,12,22,8.10
2022,04,17,12,23,8.10
2022,04,17,12,24,8.10
2022,04,17,12,25,7.90
2022,04,17,12,26,7.80
2022,04,17,12,27,7.80
2022,04,17,12,28,7.70
2022,04,17,12,29,7.70
2022,04,17,12,30,7.70
2022,04,17,12,31,7.80
2022,04,17,12,32,7.90
2022,04,17,12,33,8.00
2022,04,17,12,34,8.10
2022,04,17,12,35,8.20
2022,04,17,12,36,8.20
2022,04,17,12,37,8.30
2022,04,17,12,38,8.30
2022,04,17,12,39,8.20
2022,04,17,12,40,8.10
2022,04,17,12,41,8.00
2022,04,17,12,42,8.00
2022,04,17,12,43,7.90
2022,04,17,12,44,7.80
2022,04,17,12,45,7.80
2022,04,17,12,46,7.70
2022,04,17,12,47,7.70
2022,04,17,12,48,7.70
2022,04,17,12,49,7.70
2022,04,17,12,50,7.70
2022,04,17,12,51,7.70
2022,04,17,12,52,7.70
2022,04,17,12,53,7.70
2022,04,17,12,54,7.70
2022,04,17,12,55,7.80
2022,04,17,12,56,7.90
2022,04,17,12,57,7.90
2022,04,17,12,58,8.00
2022,04,17,12,59,8.00
2022,04,17,13,00,8.10
2022,04,17,13,01,8.10
2022,04,17,13,02,8.10
2022,04,17,13,03,8.20
2022,04,17,13,04,8.20
2022,04,17,13,05,8.30
2022,04,17,13,06,8.30
2022,04,17,13,07,8.20
2022,04,17,13,08,8.10
2022,04,17,13,09,8.00
2022,04,17,13,10,7.90
2022,04,17,13,11,7.90
2022,04,17,13,12,7.90
2022,04,17,13,13,7.80
2022,04,17,13,14,7.80
2022,04,17,13,15,7.80
2022,04,17,13,16,7.80
2022,04,17,13,17,7.80
2022,04,17,13,18,7.80
2022,04,17,13,19,7.80
2022,04,17,13,20,7.80
2022,04,17,13,21,7.90
2022,04,17,13,22,8.00
2022,04,17,13,23,8.10
2022,04,17,13,24,8.20
2022,04,17,13,25,8.30
2022,04,17,13,26,8.40
2022,04,17,13,27,8.40
2022,04,17,13,28,8.40
2022,04,17,13,29,8.50
2022,04,17,13,30,8.50
2022,04,17,13,31,8.60
2022,04,17,13,32,8.70
2022,04,17,13,33,8.70
2022,04,17,13,34,8.70
2022,04,17,13,35,8.60
2022,04,17,13,36,8.60
2022,04,17,13,37,8.60
2022,04,17,13,38,8.60
2022,04,17,13,39,8.60
2022,04,17,13,40,8.70
2022,04,17,13,41,8.80
2022,04,17,13,42,8.90
2022,04,17,13,43,8.90
2022,04,17,13,44,8.90
2022,04,17,13,45,8.90
2022,04,17,13,46,8.90
2022,04,17,13,47,8.80
2022,04,17,13,48,8.80
2022,04,17,13,49,8.70
2022,04,17,13,50,8.70
2022,04,17,13,51,8.70
2022,04,17,13,52,8.70
2022,04,17,13,53,8.70
2022,04,17,13,54,8.70
2022,04,17,13,55,8.80
2022,04,17,13,56,8.80
2022,04,17,13,57,8.80
2022,04,17,13,58,8.80
2022,04,17,13,59,8.80
2022,04,17,14,00,8.80
2022,04,17,14,01,8.80
2022,04,17,14,02,8.80
2022,04,17,14,03,8.80
2022,04,17,14,04,8.80
2022,04,17,14,05,8.90
2022,04,17,14,06,8.90
2022,04,17,14,07,8.90
2022,04,17,14,08,9.00
2022,04,17,14,09,9.00
2022,04,17,14,10,9.00
2022,04,17,14,11,9.00
2022,04,17,14,12,9.00
2022,04,17,14,13,9.00
2022,04,17,14,14,9.00
2022,04,17,14,15,9.10
2022,04,17,14,16,9.10
2022,04,17,14,17,9.10
2022,04,17,14,18,9.10
2022,04,17,14,19,9.20
2022,04,17,14,20,9.20
2022,04,17,14,21,9.30
2022,04,17,14,22,9.30
2022,04,17,14,23,9.30
2022,04,17,14,24,9.20
2022,04,17,14,25,9.20
2022,04,17,14,26,9.20
2022,04,17,14,27,9.20
2022,04,17,14,28,9.10
2022,04,17,14,29,9.20
2022,04,17,14,30,9.20
2022,04,17,14,31,9.20
2022,04,17,14,32,9.20
2022,04,17,14,33,9.20
2022,04,17,14,34,9.20
2022,04,17,14,35,9.30
2022,04,17,14,36,9.30
2022,04,17,14,37,9.30
2022,04,17,14,38,9.30
2022,04,17,14,39,9.30
2022,04,17,14,40,9.30
2022,04,17,14,41,9.30
2022,04,17,14,42,9.30
2022,04,17,14,43,9.30
2022,04,17,14,44,9.30
2022,04,17,14,45,9.40
2022,04,17,14,46,9.50
2022,04,17,14,47,9.50
2022,04,17,14,48,9.60
2022,04,17,14,49,9.60
2022,04,17,14,50,9.70
2022,04,17,14,51,9.70
2022,04,17,14,52,9.70
2022,04,17,14,53,9.70
2022,04,17,14,54,9.70
2022,04,17,14,55,9.80
2022,04,17,14,56,9.90
2022,04,17,14,57,9.90
2022,04,17,14,58,9.90
2022,04,17,14,59,9.90
2022,04,17,15,00,10.00
2022,04,17,15,01,10.00
2022,04,17,15,02,10.00
2022,04,17,15,03,9.90
2022,04,17,15,04,9.80
2022,04,17,15,05,9.80
2022,04,17,15,06,9.80
2022,04,17,15,07,9.80
2022,04,17,15,08,9.80
2022,04,17,15,09,9.80
2022,04,17,15,10,9.70
2022,04,17,15,11,9.70
2022,04,17,15,12,9.80
2022,04,17,15,13,9.80
2022,04,17,15,14,9.90
2022,04,17,15,15,9.90
2022,04,17,15,16,9.90
2022,04,17,15,17,10.00
2022,04,17,15,18,10.00
2022,04,17,15,19,10.00
2022,04,17,15,20,10.00
2022,04,17,15,21,10.00
2022,04,17,15,22,10.00
2022,04,17,15,23,10.10
2022,04,17,15,24,10.10
2022,04,17,15,25,10.20
2022,04,17,15,26,10.20
2022,04,17,15,27,10.30
2022,04,17,15,28,10.30
2022,04,17,15,29,10.40
2022,04,17,15,30,10.40
2022,04,17,15,31,10.40
2022,04,17,15,32,10.40
2022,04,17,15,33,10.40
2022,04,17,15,34,10.30
2022,04,17,15,35,10.30
2022,04,17,15,36,10.30
2022,04,17,15,37,10.30
2022,04,17,15,38,10.30
2022,04,17,15,39,10.30
2022,04,17,15,40,10.30
2022,04,17,15,41,10.30
2022,04,17,15,42,10.40
2022,04,17,15,43,10.40
2022,04,17,15,44,10.50
2022,04,17,15,45,10.50
2022,04,17,15,46,10.40
2022,04,17,15,47,10.30
2022,04,17,15,48,10.30
2022,04,17,15,49,10.30
2022,04,17,15,50,10.20
2022,04,17,15,51,10.20
2022,04,17,15,52,10.10
2022,04,17,15,53,10.10
2022,04,17,15,54,10.10
2022,04,17,15,55,10.10
2022,04,17,15,56,10.10
2022,04,17,15,57,10.10
2022,04,17,15,58,10.10
2022,04,17,15,59,10.10
2022,04,17,16,00,10.10
2022,04,17,16,01,10.00
2022,04,17,16,02,10.00
2022,04,17,16,03,10.00
2022,04,17,16,04,10.10
2022,04,17,16,05,10.10
2022,04,17,16,06,10.10
2022,04,17,16,07,10.20
2022,04,17,16,08,10.20
2022,04,17,16,09,10.30
2022,04,17,16,10,10.40
2022,04,17,16,11,10.50
2022,04,17,16,12,10.70
2022,04,17,16,13,10.80
2022,04,17,16,14,10.90
2022,04,17,16,15,10.90
2022,04,17,16,16,11.00
2022,04,17,16,17,10.90
2022,04,17,16,18,11.00
2022,04,17,16,19,11.00
2022,04,17,16,20,11.10
2022,04,17,16,21,11.10
2022,04,17,16,22,11.10
2022,04,17,16,23,11.00
2022,04,17,16,24,11.00
2022,04,17,16,25,11.00
2022,04,17,16,26,10.90
2022,04,17,16,27,10.80
2022,04,17,16,28,10.80
2022,04,17,16,29,10.70
2022,04,17,16,30,10.70
2022,04,17,16,31,10.70
2022,04,17,16,32,10.70
2022,04,17,16,33,10.60
2022,04,17,16,34,10.60
2022,04,17,16,35,10.60
2022,04,17,16,36,10.70
2022,04,17,16,37,10.70
2022,04,17,16,38,10.80
2022,04,17,16,39,10.90
2022,04,17,16,40,10.90
2022,04,17,16,41,10.90
2022,04,17,16,42,10.90
2022,04,17,16,43,11.00
2022,04,17,16,44,11.00
2022,04,17,16,45,10.90
2022,04,17,16,46,10.80
2022,04,17,16,47,10.60
2022,04,17,16,48,10.50
2022,04,17,16,49,10.40
2022,04,17,16,50,10.30
2022,04,17,16,51,10.30
2022,04,17,16,52,10.30
2022,04,17,16,53,10.20
2022,04,17,16,54,10.20
2022,04,17,16,55,10.20
2022,04,17,16,56,10.20
2022,04,17,16,57,10.20
2022,04,17,16,58,10.10
2022,04,17,16,59,10.10
2022,04,17,17,00,10.10
2022,04,17,17,01,10.20
2022,04,17,17,02,10.10
2022,04,17,17,03,10.10
2022,04,17,17,04,10.00
2022,04,17,17,05,9.90
2022,04,17,17,06,9.90
2022,04,17,17,07,9.90
2022,04,17,17,08,9.90
2022,04,17,17,09,9.90
2022,04,17,17,10,9.90
2022,04,17,17,11,9.90
2022,04,17,17,12,9.90
2022,04,17,17,13,9.90
2022,04,17,17,14,10.00
2022,04,17,17,15,10.00
2022,04,17,17,16,10.00
2022,04,17,17,17,10.00
2022,04,17,17,18,10.10
2022,04,17,17,19,10.10
2022,04,17,17,20,10.10
2022,04,17,17,21,10.10
2022,04,17,17,22,10.00
2022,04,17,17,23,10.00
2022,04,17,17,24,9.90
2022,04,17,17,25,9.90
2022,04,17,17,26,9.80
2022,04,17,17,27,9.80
2022,04,17,17,28,9.90
2022,04,17,17,29,9.90
2022,04,17,17,30,9.90
2022,04,17,17,31,9.90
2022,04,17,17,32,9.90
2022,04,17,17,33,9.90
2022,04,17,17,34,9.90
2022,04,17,17,35,10.00
2022,04,17,17,36,9.90
2022,04,17,17,37,9.90
2022,04,17,17,38,9.90
2022,04,17,17,39,9.90
2022,04,17,17,40,9.80
2022,04,17,17,41,9.90
2022,04,17,17,42,9.90
2022,04,17,17,43,9.80
2022,04,17,17,44,9.80
2022,04,17,17,45,9.80
2022,04,17,17,46,9.80
2022,04,17,17,47,9.80
2022,04,17,17,48,9.80
2022,04,17,17,49,9.80
2022,04,17,17,50,9.80
2022,04,17,17,51,9.80
2022,04,17,17,52,9.80
2022,04,17,17,53,9.80
2022,04,17,17,54,9.80
2022,04,17,17,55,9.80
2022,04,17,17,56,9.80
2022,04,17,17,57,9.70
2022,04,17,17,58,9.70
2022,04,17,17,59,9.70
2022,04,17,18,00,9.70
2022,04,17,18,01,9.70
2022,04,17,18,02,9.70
2022,04,17,18,03,9.70
2022,04,17,18,04,9.70